sat.trackr.live / text

‹ back to catalog

STARLINK-11132 [DTC]

NORAD 59755 · 2024-091C

PAYLOAD ACTIVE UNKNOWN

§ Identity

Operator
Country
US
Launch date
2024-05-14
Launch site
AFWTR
Launch vehicle
Mass (kg)
RCS (m²)

Purposes: comms

External: N2YO · Heavens-Above · Gunter

§ Orbital elements

Epoch: 2026-05-24T14:30:13.110624Z

Period
91.74 min
Inclination
53.1585°
Eccentricity
0.0001257
Mean motion
15.69712142 rev/d
Perigee alt
358.9 km
Apogee alt
360.6 km
Semi-major
6,737.9 km
B*
1.9258e-5
RAAN
192.2496°
Arg perigee
82.0558°
Mean anomaly
278.0602°
Rev number
11,743

§ Raw data

STARLINK-11132 [DTC]1 59755U 24091C   26144.60431841  .00001745  00000+0  19258-4 0  99962 59755  53.1585 192.2496 0001257  82.0558 278.0602 15.69712142117435

JSON: /api/v1/satellites/59755 · /tle

For live sub-satellite position, see the globe view (requires WebGL).

§ Visibility from observer

Set your observer location to see the next 7 days of passes ≥ 10°. The values pass through the URL so the page stays shareable.

No JS? Fill the form by hand. The geolocation button needs JavaScript.